Flag for Micronesia Weather past 2 weeks in Colonia, Yap, Micronesia

Now
80 °F

Overcast.


Feels Like: 86 °F
Forecast: 79 / 85 °F
Wind: No wind

Location: Yap Island

Current Time: Sep 3, 2015 at 1:36:35 AM

Latest Report: Sep 3, 2015 at 12:52 AM


Visibility: 12 mi

Pressure: 29.89 "Hg

Humidity: 87%

Dew point: 76 °F

Location of ColoniaLocation

Historic Weather in Colonia — Graph

°F

Colonia temperature yesterday

Maximum temperature yesterday: 87 °F (at 10:53 AM)
Minimum temperature yesterday: 78 °F (at 1:54 AM)
Average temperature yesterday: 82 °F

Past Weeks' High & Low Weather Summary

 TemperatureHumidityPressure
High96 °F (Aug 24, 4:52 AM)96% (Aug 24, 5:50 PM)29.95 "Hg (Aug 24, 5:50 PM)
Low74 °F (Aug 25, 9:56 AM)51% (Aug 24, 4:52 AM)29.75 "Hg (Aug 27, 3:52 PM)
Average82 °F84%29.84 "Hg
* Reported Aug 18 11:50 PM — Sep 2 11:50 PM, Colonia, Weather by CustomWeather, © 2015

Note: Actual official high and low records may vary slightly from our data, if they occured in-between our weather recording intervals... More about our weather records

Advertising

Colonia weather history for previous 24 hours

 ConditionsComfort  
Time TempWeatherWind HumidityBarometerVisibility
11:50 PM
Wed, Sep 2
78 °FOvercast.3 mph92%29.90 "Hg12 mi
10:50 PM78 °FOvercast.3 mph93%29.90 "Hg12 mi
9:53 PM82 °FOvercast.3 mph83%29.90 "Hg12 mi
8:50 PM83 °FOvercast.3 mph79%29.89 "Hg12 mi
7:52 PM83 °FCloudy.3 mph82%29.88 "Hg12 mi
6:50 PM83 °FCloudy.3 mph80%29.85 "Hg12 mi
5:50 PM83 °FCloudy.6 mph77%29.83 "Hg12 mi
4:58 PM85 °FCloudy.6 mph76%29.82 "Hg12 mi
3:52 PM85 °FCloudy.7 mph77%29.82 "Hg12 mi
2:50 PM85 °FCloudy.7 mph75%29.83 "Hg12 mi
1:52 PM86 °FBroken clouds.7 mph75%29.85 "Hg12 mi
12:51 PM85 °FBroken clouds.5 mph76%29.88 "Hg12 mi
11:51 AM85 °FBroken clouds.6 mph76%29.89 "Hg12 mi
10:53 AM87 °FBroken clouds.6 mph73%29.89 "Hg12 mi
8:53 AM83 °FScattered clouds.5 mph82%29.83 "Hg12 mi
6:57 AM81 °FMostly cloudy.2 mph85%29.87 "Hg12 mi
5:55 AM81 °FPartly cloudy.3 mph85%29.85 "Hg12 mi
4:59 AM81 °FPartly cloudy.3 mph85%29.85 "Hg12 mi
3:55 AM80 °FPartly cloudy.2 mph89%29.85 "Hg12 mi
2:53 AM80 °FPartly cloudy.3 mph90%29.85 "Hg12 mi
1:54 AM78 °FOvercast.3 mph91%29.83 "Hg12 mi
Weather by CustomWeather, © 2015

See weather overviewHow to use our weather pages